Regional Weather Roundup
Issued by NWS

Home | Current Version | Previous Version | Graphics & Text | Print | Product List | Glossary On
Versions: 1 2 3 4 5 6 7 8 9 10 11 12 13 14 15 16 17 18 19 20 21 22 23 24 25 26 27 28 29 30 31 32 33 34 35 36 37 38 39 40 41 42 43 44 45 46 47 48 49 50
502
ASUS45 KSLC 241010
RWRUT

UTAH REGIONAL WEATHER ROUNDUP
NATIONAL WEATHER SERVICE SALT LAKE CITY UT
300 AM MST FRI FEB 24 2017

UTZ001>011-023>025-241100-

NORTHERN UTAH

CITY           SKY/WX    TMP DP  RH WIND       PRES   REMARKS
BRIGHAM CITY     N/A     26  22  84 CALM      29.95R
HILL AFB       LGT SNOW  23  21  93 CALM      29.91S VSB 1
LOGAN          LGT SNOW  26  23  88 SW3       29.92S FOG
OGDEN          LGT SNOW  23  21  92 CALM      29.92F FOG
SALT LAKE CITY FLURRIES  27  23  85 CALM      29.94R
TOOELE VALLEY  CLOUDY    28  23  80 CALM      29.95S
WENDOVER       MOCLDY    27   9  46 NW10      29.97R WCI  17
HEBER CITY     PTCLDY    10   7  85 E5        29.86S WCI   2
WEST JORDAN    CLOUDY    28  28 100 CALM      29.94S

$$

UTZ011>015-024>027-241100-

CENTRAL/NORTHEAST UTAH

CITY           SKY/WX    TMP DP  RH WIND       PRES   REMARKS
PROVO AIRPORT  CLOUDY    25  20  81 CALM      29.95R
MOAB/CANYONLAN CLOUDY    27  16  63 W6        29.84R WCI  20
DELTA          CLOUDY    21  21 100 CALM      29.95S
PRICE          PTCLDY    22  11  62 NW8       29.83R WCI  12
RICHFIELD      CLOUDY    23  25 100 CALM      29.94R FOG
ROOSEVELT      CLOUDY    23  21  93 W5        29.84S WCI  17
VERNAL         LGT SNOW  22  19  89 N3        29.82S FOG

$$

UTZ013>016-019>022-027-241100-

SOUTHERN UTAH

CITY           SKY/WX    TMP DP  RH WIND       PRES   REMARKS
BRYCE CANYON   PTCLDY     8   4  83 N5        29.83S WCI   0
CEDAR CITY     CLOUDY    22  14  71 W6        29.91R WCI  14
MILFORD        CLOUDY    22  18  85 NW6       29.93S WCI  14
ST GEORGE      MOSUNNY   37  19  48 W12       30.00R WCI  29
HANKSVILLE     PTCLDY    23  10  58 CALM      29.88S
KANAB          MOCLDY    23  19  86 W1        29.97S
BLANDING       PTCLDY    25  16  70 W3        29.90S

$$

REGIONAL REPORTS     COLORADO/ARIZONA

CITY           SKY/WX    TMP DP  RH WIND       PRES   REMARKS
CRAIG, CO      CLOUDY    19  12  74 W8        29.78S WCI   9
GRAND JUNCTION PTCLDY    22  21  96 NE5       29.82S WCI  16
RIFLE, CO      CLOUDY    25  21  85 CALM      29.81F
MONTROSE, CO   CLEAR     21  13  71 S6        29.83F WCI  13
CORTEZ, CO     CLOUDY    24  18  77 SW3       29.84R
COLORADO CITY    N/A     28  18  64 W3        29.97R
PAGE, AZ       CLEAR     33   8  35 CALM      29.90F
GRAND CANYON   CLEAR     16  11  80 SW3       29.93R
KINGMAN, AZ    CLEAR     31   3  30 N3        30.01R
FLAGSTAFF, AZ  CLEAR     20   5  52 W7        29.91S WCI  11

$$

REGIONAL REPORTS    NEVADA/IDAHO/WYOMING

CITY           SKY/WX    TMP DP  RH WIND       PRES   REMARKS
LAS VEGAS, NV  CLEAR     43  13  29 S6        30.02R
ELY, NY        CLOUDY    16  11  80 W5        29.95R WCI   9
ELKO, NV       CLOUDY    21  15  78 CALM      30.00R
POCATELLO, ID  LGT SNOW  22  20  92 SW23      29.90R FOG     WCI   6
BURLEY, ID     FLURRIES  26  16  65 W20G30    29.92R WCI  12
FORT BRIDGER,  LGT SNOW  16  16 100 W8        29.81S WCI   5
EVANSTON, WY   LGT SNOW  14   9  80 W9        29.79S WCI   2
ROCK SPRINGS,  CLOUDY    14   8  77 NE3       29.78S

$$




USA.gov is the U.S. government's official web portal to all federal, state and local government web resources and services.